EW4221 Weather Reports


Display with metric or nautical units.
time (UTC)temp
F
wind
direction
speed
MPH
gust
MPH
rain 1hr
in
rain 24hr
in
rain mn
in
humidity
%
barometer
mb
20240530063026 45 300 0.0 8.0 0.00 0.12 0.00 93 1015.6
20240530061513 45 300 0.0 2.0 0.00 0.12 0.00 91 1015.4
20240530060011 46 303 0.0 3.0 0.00 0.12 0.00 91 1015.3
20240530054509 46 269 0.0 3.0 0.00 0.12 0.00 90 1015.3
20240530053006 47 328 2.0 6.0 0.00 0.12 0.00 89 1015.2
20240530051504 47 319 1.0 6.0 0.00 0.12 0.00 87 1015.1
20240530050003 48 313 1.0 3.0 0.00 0.12 0.00 88 1015.1
20240530044620 49 317 1.0 7.0 0.00 0.12 0.00 85 1015.1
20240530043058 49 297 2.0 6.0 0.00 0.12 0.00 82 1015.0
20240530041553 49 331 3.0 8.0 0.00 0.12 0.00 82 1015.0
20240530040051 50 304 2.0 8.0 0.00 0.12 0.00 82 1014.8
20240530034549 50 325 4.0 8.0 0.00 0.12 0.12 82 1014.7
20240530033048 50 321 4.0 9.0 0.00 0.12 0.12 82 1014.7
20240530031545 50 321 4.0 8.0 0.00 0.12 0.12 82 1014.4
20240530030042 50 329 2.0 5.0 0.00 0.12 0.12 86 1014.4
20240530024541 51 313 2.0 5.0 0.00 0.12 0.12 84 1014.5
20240530023041 52 323 2.0 8.0 0.00 0.12 0.12 85 1014.5
20240530021540 52 305 3.0 9.0 0.00 0.12 0.12 86 1014.4
20240530020040 52 327 4.0 9.0 0.00 0.12 0.12 84 1014.3
20240530014536 53 323 5.0 9.0 0.00 0.12 0.12 81 1014.3
20240530013040 53 317 4.0 10.0 0.00 0.12 0.12 87 1014.1
20240530011534 54 340 4.0 8.0 0.00 0.12 0.12 88 1013.9
20240530010045 54 336 4.0 9.0 0.00 0.12 0.12 89 1013.9
20240530004533 54 335 5.0 9.0 0.00 0.13 0.12 88 1013.9
20240530003033 55 302 6.0 10.0 0.00 0.13 0.12 88 1013.7
20240530001532 55 329 4.0 8.0 0.00 0.13 0.12 91 1013.8
20240530000031 55 310 0.0 0.0 0.00 0.13 0.12 93 1013.7
20240529234550 55 268 0.0 3.0 0.00 0.13 0.12 94 1013.6
20240529233032 55 246 0.0 2.0 0.01 0.13 0.12 94 1013.7
20240529231531 55 251 1.0 4.0 0.02 0.13 0.12 93 1013.7
20240529230030 55 243 1.0 4.0 0.03 0.13 0.12 93 1013.9
20240529224529 55 208 2.0 5.0 0.05 0.13 0.12 93 1014.0
20240529223029 56 253 2.0 5.0 0.07 0.12 0.11 92 1013.9
20240529221528 56 280 1.0 4.0 0.09 0.11 0.10 92 1013.9
20240529220027 56 272 2.0 5.0 0.09 0.10 0.09 91 1013.9
20240529214527 57 32 0.0 1.0 0.07 0.08 0.07 90 1013.6
20240529213026 57 32 0.0 4.0 0.03 0.04 0.03 88 1013.4
20240529211526 57 5 4.0 8.0 0.01 0.02 0.01 83 1013.3
20240529210024 60 304 4.0 9.0 0.00 0.01 0.00 77 1013.2
20240529204524 61 74 1.0 4.0 0.00 0.22 0.00 79 1013.0
20240529203033 61 86 2.0 9.0 0.00 0.22 0.00 79 1012.6
20240529201523 62 84 3.0 7.0 0.00 0.22 0.00 75 1012.6
20240529200022 62 49 2.0 10.0 0.00 0.22 0.00 76 1012.5
20240529194521 62 16 7.0 11.0 0.00 0.23 0.00 71 1012.6
20240529193020 61 36 4.0 9.0 0.00 0.23 0.00 76 1012.6
20240529191537 61 39 3.0 11.0 0.00 0.23 0.00 73 1012.9
20240529190026 63 15 4.0 12.0 0.00 0.23 0.00 75 1012.8
20240529184518 65 23 8.0 14.0 0.00 0.33 0.00 72 1012.7
20240529183036 62 21 5.0 12.0 0.00 0.33 0.00 73 1012.8
20240529181516 63 15 7.0 15.0 0.00 0.33 0.00 74 1012.8
20240529180035 64 18 5.0 12.0 0.00 0.33 0.00 77 1013.0
20240529174519 65 14 5.0 12.0 0.00 0.33 0.00 73 1013.1
20240529173014 65 325 6.0 15.0 0.00 0.33 0.00 71 1013.3
20240529171523 65 29 6.0 11.0 0.00 0.33 0.00 68 1013.3
20240529170010 64 348 5.0 14.0 0.00 0.33 0.00 71 1013.4
20240529164509 64 57 5.0 11.0 0.00 0.34 0.00 72 1013.4
20240529163007 64 329 5.0 11.0 0.00 0.34 0.00 70 1013.4
20240529161506 64 5 4.0 9.0 0.00 0.34 0.00 72 1013.7
20240529160006 63 44 1.0 7.0 0.00 0.34 0.00 72 1013.9
20240529154505 62 336 3.0 6.0 0.00 0.35 0.00 71 1014.0
20240529153014 64 333 1.0 9.0 0.00 0.35 0.00 68 1014.1
20240529151603 63 31 5.0 10.0 0.00 0.35 0.00 75 1014.1
20240529150058 62 50 1.0 10.0 0.00 0.35 0.00 74 1014.1
20240529144554 61 27 8.0 11.0 0.00 0.35 0.00 79 1013.9
20240529143051 61 355 5.0 10.0 0.00 0.35 0.00 77 1013.7
20240529141549 60 42 2.0 8.0 0.00 0.35 0.00 81 1013.5
20240529140113 60 31 2.0 6.0 0.00 0.35 0.00 79 1013.4
20240529134548 60 355 3.0 8.0 0.00 0.35 0.00 81 1013.4
20240529133058 58 355 3.0 6.0 0.00 0.35 0.00 84 1013.4
20240529131541 57 29 2.0 4.0 0.00 0.35 0.00 87 1013.4
20240529130035 56 317 3.0 8.0 0.00 0.35 0.00 90 1013.6
20240529124541 56 326 2.0 6.0 0.00 0.35 0.00 91 1013.5
20240529123045 56 360 4.0 8.0 0.00 0.35 0.00 91 1013.4
20240529121535 56 5 3.0 8.0 0.00 0.35 0.00 91 1013.4
20240529120031 56 275 2.0 6.0 0.00 0.35 0.00 92 1013.5
20240529114534 55 350 1.0 9.0 0.00 0.35 0.00 92 1013.2
20240529113028 55 315 3.0 6.0 0.00 0.35 0.00 95 1013.0
20240529111525 54 346 2.0 5.0 0.00 0.35 0.00 97 1012.9
20240529110023 53 298 1.0 5.0 0.00 0.35 0.00 96 1012.8
20240529104523 51 292 0.0 0.0 0.00 0.35 0.00 96 1012.7
20240529103021 51 292 0.0 0.0 0.00 0.35 0.00 96 1012.6
20240529101516 51 292 0.0 3.0 0.00 0.35 0.00 95 1012.4
20240529100019 51 205 0.0 2.0 0.00 0.35 0.00 95 1012.0
20240529094511 51 196 1.0 3.0 0.00 0.35 0.00 95 1012.0
20240529093010 51 257 1.0 3.0 0.00 0.35 0.00 95 1011.8
20240529091507 51 280 1.0 4.0 0.00 0.35 0.00 94 1011.6
20240529090005 51 317 0.0 1.0 0.00 0.35 0.00 92 1011.4
20240529084501 52 317 0.0 2.0 0.00 0.35 0.00 92 1011.3
20240529083059 53 317 2.0 5.0 0.00 0.35 0.00 92 1011.3
20240529081558 53 322 1.0 4.0 0.00 0.35 0.00 93 1011.2
20240529080104 54 331 4.0 6.0 0.00 0.35 0.00 93 1011.2
20240529074554 54 340 3.0 6.0 0.00 0.35 0.00 92 1011.2
20240529073053 54 293 2.0 5.0 0.00 0.35 0.00 92 1011.2
20240529071551 54 338 3.0 5.0 0.00 0.35 0.00 92 1011.3
20240529070053 55 290 2.0 7.0 0.00 0.35 0.00 93 1011.3
20240529064552 55 246 3.0 6.0 0.00 0.35 0.00 93 1011.3